Date,TemperatureHighF,TemperatureAvgF,TemperatureLowF,DewpointHighF,DewpointAvgF,DewpointLowF,HumidityHigh,HumidityAvg,HumidityLow,PressureMaxIn,PressureMinIn,WindSpeedMaxMPH,WindSpeedAvgMPH,GustSpeedMaxMPH,PrecipitationSumIn
2013-1-1,40.6,32.5,26.4,33.3,21.8,14.2,76,65,52,31.57,31.44,7,1,10,0.00
2013-1-2,37.8,29.6,23.4,29.8,17.7,11.1,76,61,51,31.45,31.28,6,0,6,0.01
2013-1-3,49.1,36.4,23.4,39.4,26.3,11.1,77,67,53,31.47,31.23,10,1,12,0.01
2013-1-4,55.8,44.0,35.8,44.4,32.3,19.0,76,64,47,31.53,31.34,11,0,11,0.00
2013-1-5,46.8,39.7,36.3,38.7,24.8,18.5,74,56,46,31.38,31.32,7,0,9,0.00
2013-1-6,49.8,42.7,37.6,41.9,29.5,19.2,75,60,45,31.42,31.34,16,1,17,0.04
2013-1-7,48.9,46.5,41.9,30.7,25.8,23.7,64,44,42,31.47,31.30,18,2,20,0.30
2013-1-8,53.2,49.3,46.6,44.8,34.5,24.8,75,58,42,31.47,31.19,9,2,12,0.01
2013-1-9,48.9,39.9,34.0,40.8,23.4,16.9,75,52,45,31.19,31.11,25,2,31,0.24
2013-1-10,35.1,33.8,32.7,17.8,16.8,16.0,50,49,49,31.29,31.16,7,0,9,0.26
2013-1-11,39.4,32.8,26.2,32.2,18.5,12.0,76,56,46,31.43,31.28,6,0,7,0.26
2013-1-12,38.5,28.4,23.2,30.9,16.8,9.9,76,62,52,31.50,31.40,5,0,6,0.06
2013-1-13,33.3,26.5,21.4,26.1,14.1,9.1,75,59,53,31.58,31.49,6,0,7,0.00
2013-1-14,39.7,29.4,20.7,30.6,18.2,8.2,75,63,53,31.69,31.57,6,0,7,0.01
2013-1-15,43.0,33.4,28.6,36.0,23.1,13.5,78,66,51,31.77,31.55,9,1,10,0.00
2013-1-16,35.2,30.5,25.9,18.1,14.5,10.9,53,51,49,31.78,31.54,4,0,5,0.01
2013-1-17,34.9,28.9,23.4,17.4,13.3,9.3,55,52,49,31.60,31.42,5,0,6,0.02
2013-1-18,45.7,34.8,26.2,37.6,19.2,10.9,74,53,46,31.44,31.38,6,0,6,0.00
2013-1-19,52.2,36.2,27.7,39.9,25.3,12.9,76,65,49,31.47,31.41,6,0,6,0.01
2013-1-20,40.3,30.2,24.1,33.1,17.6,10.6,76,59,52,31.48,31.26,5,0,6,0.01
2013-1-21,57.0,35.8,24.6,39.4,25.5,11.5,76,66,42,31.40,31.26,8,0,10,0.00
2013-1-22,46.0,37.1,29.7,35.8,28.7,20.3,76,72,58,31.31,31.07,7,1,9,0.00
2013-1-23,41.9,36.2,31.1,27.7,21.1,16.9,69,54,46,31.34,31.06,11,0,12,0.35
2013-1-24,54.0,41.9,33.3,34.9,23.3,16.2,58,47,41,31.37,31.13,6,0,7,0.18
2013-1-25,50.2,47.4,36.3,28.4,25.8,17.6,46,43,42,31.36,25.38,14,1,14,0.57
2013-1-26,44.2,39.0,35.2,28.0,20.6,16.5,59,47,44,31.30,31.09,18,1,18,0.39
2013-1-27,40.5,37.6,35.8,21.4,18.9,17.1,49,46,45,31.93,31.10,14,2,18,0.56
2013-1-28,40.8,38.8,36.5,21.6,20.0,17.8,47,46,46,31.46,31.10,19,3,19,0.61
2013-1-29,43.0,41.3,40.8,23.2,22.0,21.6,47,46,45,31.50,31.13,12,3,18,0.35
2013-1-31,47.7,43.6,38.1,27.9,23.9,19.2,48,46,44,31.29,17.24,6,0,7,0.01
2013-2-1,49.8,41.1,34.9,41.9,24.0,16.2,75,51,44,32.29,31.11,10,1,12,0.00
2013-2-2,56.1,41.3,33.1,47.1,25.7,15.4,74,54,43,32.42,31.09,6,1,9,0.01